Wind_Speed
57 58 58 58 58 58 58 57 57 56 56 55 55 55 56 55 55 54 53 52 51 49 47 47 45 41 36 33 34 36 38 38 38 37 35 33 33 35 37 38 37 37 33 30 33 37 38 36 35 34 36 41 47 52 54 48 39 37 39 40 42 41 40 40 40 41 41 42 45 48 49 50 49 49 48 46 44 43 42 43 46 48 50 52 53
57 58 58 58 58 58 58 58 58 57 56 56 56 56 56 56 56 55 54 53 52 50 48 45 43 40 35 32 34 38 38 36 36 37 36 34 32 34 39 41 39 39 36 32 34 39 39 37 36 36 36 38 42 47 51 49 42 39 39 42 43 42 40 40 39 39 41 43 45 46 46 44 43 43 44 42 41 41 42 43 46 49 52 54 52
57 58 58 59 59 59 59 59 58 58 57 57 57 57 57 57 56 56 54 53 52 51 48 44 41 38 33 32 37 40 39 37 37 38 37 35 34 34 39 43 43 42 40 36 37 40 40 41 41 40 40 40 41 44 49 50 44 38 38 41 43 41 40 40 39 40 42 43 43 43 42 42 43 45 46 44 42 41 42 43 47 50 51 50 48
58 59 59 59 59 60 60 59 59 58 58 58 58 58 58 57 57 56 55 53 52 51 49 44 40 37 31 33 41 42 39 38 40 41 38 37 36 36 38 43 45 44 40 38 40 41 40 42 43 42 43 43 40 41 46 47 42 38 38 40 42 42 41 40 40 40 41 41 40 40 41 43 45 46 46 44 41 41 42 43 44 45 44 43 43
58 59 59 60 60 60 60 60 59 59 59 59 59 59 59 58 57 56 55 53 52 51 49 44 39 35 30 36 43 42 38 38 41 42 39 37 38 40 42 43 44 42 39 38 39 38 38 41 44 44 44 44 40 38 41 43 41 40 40 41 44 45 43 41 39 38 39 38 38 40 43 45 45 44 43 41 38 38 39 39 38 38 39 39 38
59 59 60 60 60 60 60 60 60 60 60 60 60 61 60 59 58 57 55 52 52 51 49 44 38 34 30 39 45 43 41 41 42 43 42 39 40 44 45 44 44 42 39 39 38 35 34 38 42 43 43 43 41 37 37 40 40 40 41 42 45 45 42 39 38 37 37 38 39 43 44 44 43 41 40 39 37 36 36 36 35 36 36 35 33
59 59 60 60 60 60 61 61 61 61 61 61 61 61 61 59 58 58 55 52 52 51 49 44 37 33 31 42 48 46 45 45 45 45 43 42 42 45 47 46 45 44 42 43 43 41 39 39 41 43 43 42 43 41 40 40 39 39 43 44 43 43 42 40 37 35 37 39 41 42 43 42 42 40 38 38 38 35 34 35 35 35 34 32 31
60 60 60 61 61 61 61 61 62 62 62 62 62 62 62 60 59 58 56 53 52 51 49 45 38 33 32 45 51 49 49 48 48 46 44 44 45 47 49 49 48 46 46 47 48 48 47 45 44 44 43 42 43 44 43 43 41 42 45 44 44 44 43 40 37 36 38 40 39 40 42 44 44 41 38 39 39 35 34 34 35 34 32 30 31
60 60 61 61 62 62 62 62 62 62 62 62 63 62 62 61 60 59 56 53 52 51 49 45 38 33 33 48 54 52 52 52 51 50 47 47 47 48 49 50 50 49 49 49 50 51 51 49 46 44 42 41 42 43 45 44 44 46 46 45 45 45 42 41 40 39 39 40 39 40 42 45 46 42 38 39 39 36 35 36 35 33 31 30 30
60 61 61 61 62 62 63 63 63 63 63 63 63 63 63 61 60 59 57 54 52 51 49 44 39 34 34 49 56 52 52 54 54 53 50 48 49 50 50 49 50 51 50 49 49 50 51 50 47 44 43 43 43 43 46 47 47 48 47 46 46 45 43 42 42 42 42 41 40 40 41 43 46 43 38 38 39 38 38 38 36 34 33 32 31
61 61 61 62 62 63 63 63 63 63 64 64 64 64 63 62 61 59 57 55 53 52 49 45 39 34 35 49 56 51 49 53 55 54 52 49 49 51 52 50 50 51 51 49 47 46 48 51 48 44 44 47 47 47 49 50 50 48 48 48 47 46 45 45 45 44 43 43 42 42 41 42 43 43 40 39 39 39 40 40 39 37 36 34 33
61 62 62 62 63 63 64 64 64 65 65 65 65 65 65 63 62 60 58 56 54 52 50 46 39 35 36 48 56 52 49 52 55 55 54 52 50 51 53 53 53 52 52 51 48 45 46 50 52 49 48 49 51 52 54 54 52 51 52 51 50 49 48 47 47 45 45 45 44 44 43 42 43 44 43 42 41 40 40 42 42 39 38 38 38
63 63 63 64 64 65 65 65 66 66 66 66 66 66 66 64 63 61 59 58 56 53 51 47 40 36 37 48 57 55 52 54 56 56 55 54 52 52 53 55 55 55 55 53 50 48 48 50 53 55 55 52 52 52 55 57 57 54 54 55 53 52 50 49 48 47 47 48 47 45 45 44 44 45 46 46 45 42 41 42 44 43 43 43 43
64 64 65 65 66 66 66 66 67 67 67 67 67 67 66 65 65 63 62 60 58 55 52 48 43 38 38 48 59 59 55 57 58 58 58 57 55 54 54 56 57 58 58 56 53 50 49 49 49 53 56 55 54 51 50 55 58 58 58 57 55 51 50 50 50 49 50 50 49 47 46 46 46 47 48 48 48 47 45 44 45 45 45 45 46
65 65 66 67 67 67 67 68 68 68 68 68 68 67 67 67 67 66 65 63 60 57 53 50 45 40 39 48 59 62 59 59 61 61 62 61 59 57 57 58 60 61 61 61 58 53 51 49 47 48 51 53 55 54 53 55 58 59 60 60 56 52 51 52 52 51 51 52 51 48 47 48 50 49 48 49 49 50 50 48 47 46 46 46 47
66 67 67 68 68 68 68 69 69 69 69 69 69 69 69 69 69 68 67 65 62 59 56 52 48 43 41 47 59 65 63 62 63 63 65 65 63 62 62 62 64 65 65 66 63 59 55 53 50 50 51 52 53 54 57 60 61 61 62 61 59 57 55 54 54 53 53 53 53 50 49 51 54 51 49 49 50 50 50 50 50 49 48 49 50
67 67 68 69 69 69 70 70 70 70 71 71 71 71 71 70 70 69 68 67 65 62 59 55 50 46 43 47 58 67 67 65 66 66 67 68 68 66 65 65 66 68 69 69 67 62 60 58 56 56 56 56 54 54 56 59 59 61 64 64 63 61 59 58 57 56 55 55 54 52 52 54 55 54 52 51 51 51 52 53 54 53 52 53 53
67 68 69 70 70 71 71 71 71 72 72 72 72 72 72 71 71 70 70 69 67 65 62 58 53 49 46 47 56 67 71 69 69 70 69 70 71 70 68 67 68 69 71 71 70 66 64 63 61 59 58 59 58 57 59 60 59 60 64 66 66 64 63 62 61 58 58 58 57 55 55 56 57 56 55 54 53 53 54 57 59 57 56 56 56
69 69 70 71 72 72 73 73 73 73 73 74 74 74 74 73 73 72 71 70 69 67 65 62 57 53 50 48 53 65 75 75 73 74 74 73 73 73 71 70 70 71 72 73 72 70 69 68 66 61 59 58 60 62 65 67 66 65 65 67 67 66 65 64 63 60 60 60 59 57 58 59 59 58 57 56 54 53 56 60 60 58 58 60 59
71 71 72 73 74 74 75 75 75 76 76 76 76 76 76 75 75 74 73 71 70 69 67 65 62 58 54 52 53 61 74 81 79 77 78 78 76 75 75 74 74 74 74 75 74 71 69 70 70 66 61 58 60 64 68 70 69 69 69 70 70 68 65 63 62 60 59 59 59 59 60 61 61 61 60 58 56 55 58 61 60 59 61 64 62
73 74 74 75 76 76 77 77 77 78 78 78 78 78 77 77 76 76 75 74 73 72 70 68 66 63 59 56 56 59 69 82 86 82 81 82 82 80 78 78 77 77 77 77 76 73 70 71 72 71 67 62 61 65 69 70 70 71 72 73 73 71 67 64 61 59 58 58 60 61 62 63 63 64 64 62 60 59 59 62 62 62 65 67 66
75 76 76 77 78 78 79 79 79 80 80 80 80 80 80 79 79 78 77 76 75 74 72 70 68 65 62 58 58 60 65 77 88 89 85 84 86 85 83 81 81 81 80 79 79 78 74 73 74 75 72 68 65 65 67 69 71 71 71 72 73 72 69 67 65 63 62 62 62 63 65 66 66 67 66 66 65 63 62 63 63 64 67 69 70
77 78 78 79 80 80 81 81 81 81 82 82 82 82 81 80 80 79 77 76 75 74 72 70 67 64 62 58 58 61 64 71 83 92 92 88 87 88 87 85 84 84 83 82 82 82 79 77 76 77 76 73 70 68 67 67 69 70 69 70 71 70 69 68 67 66 65 65 66 67 68 68 68 69 68 68 67 66 65 65 66 67 68 70 72
79 80 80 81 82 82 82 82 82 82 82 82 81 81 80 79 78 77 76 75 73 72 70 69 66 64 61 59 58 60 65 69 76 88 96 95 91 89 89 88 86 86 86 86 85 85 84 82 80 80 79 77 76 75 73 72 72 72 71 71 71 70 69 69 68 66 66 67 69 70 70 70 70 71 71 71 70 69 68 69 70 71 72 73 74
81 81 82 82 82 82 82 81 81 81 80 80 80 79 79 78 77 76 75 74 73 72 70 69 68 65 63 61 59 61 65 69 73 81 93 100 98 94 92 91 89 87 87 88 89 89 88 87 85 84 83 83 82 81 80 80 80 79 77 76 75 73 72 71 70 69 70 71 72 72 72 73 73 73 73 74 74 74 73 73 73 74 75 76 77
81 81 81 81 81 80 80 80 80 79 78 78 77 77 76 76 74 73 73 72 71 70 69 68 68 68 66 64 63 62 66 70 73 76 85 96 102 101 97 95 93 91 89 89 89 91 92 92 91 90 88 88 86 85 85 86 86 86 85 84 83 81 79 77 76 75 75 75 74 74 74 75 76 77 77 78 78 78 78 78 77 78 79 80 81
79 79 79 79 79 78 77 77 76 75 74 73 72 72 72 71 71 69 69 68 68 67 67 66 66 66 67 66 66 65 67 71 74 76 80 89 99 104 103 100 97 95 93 91 90 90 91 93 94 94 93 92 90 89 89 88 88 88 89 88 88 87 84 82 81 80 80 79 78 77 78 79 80 80 81 81 82 82 82 82 82 82 83 84 83
78 77 77 77 76 74 73 72 71 70 70 69 68 67 67 66 67 66 65 65 65 64 64 64 63 63 64 65 66 67 68 71 75 78 80 83 91 101 106 105 102 98 96 95 94 92 92 92 93 94 94 94 93 92 91 90 89 88 89 89 88 87 86 85 84 83 83 82 81 81 81 82 83 83 84 84 84 84 84 85 85 86 86 86 86
74 74 73 72 71 70 69 67 65 64 63 63 63 62 61 61 61 61 61 61 61 61 61 62 62 62 62 63 64 65 67 70 74 78 81 83 86 93 102 107 107 103 99 97 96 96 95 94 94 93 93 93 93 92 92 92 91 90 89 89 88 87 87 86 86 86 86 85 84 83 84 84 85 85 86 86 86 86 87 88 88 89 89 88 87
69 69 69 68 66 65 63 62 61 59 58 58 59 59 58 58 57 58 58 58 59 59 59 59 59 59 60 62 63 63 65 68 72 77 81 84 86 89 95 103 108 108 104 100 98 97 97 97 97 96 95 94 93 93 93 92 92 91 91 90 90 89 89 88 89 89 89 88 87 86 87 87 87 88 88 88 89 89 90 90 91 91 90 88 86
64 63 62 62 61 60 59 58 57 57 56 55 55 55 55 55 55 55 55 56 56 57 57 57 57 57 58 59 60 62 63 65 68 73 79 84 87 88 91 96 103 109 109 105 101 98 97 98 99 99 99 97 96 95 94 94 93 92 91 91 90 90 90 90 90 91 91 90 89 88 89 89 89 90 91 91 91 92 92 92 92 91 89 87 86
58 58 57 57 57 57 56 56 54 54 53 53 53 53 53 52 52 51 52 53 54 55 55 55 55 56 56 57 58 59 61 63 65 69 74 80 85 89 91 93 97 104 109 110 107 102 98 97 98 99 100 100 100 98 97 96 95 94 93 91 91 91 90 91 91 92 92 92 92 91 90 90 91 91 92 92 92 92 92 92 92 91 89 88 87
53 54 54 55 55 54 54 54 52 52 51 51 50 51 51 51 50 49 47 48 50 53 54 54 53 54 55 56 56 57 58 61 63 66 70 74 80 86 91 93 95 99 104 109 111 109 105 100 98 98 99 100 102 102 100 99 98 97 95 93 92 92 92 92 92 93 93 93 93 93 93 92 92 92 92 92 92 91 91 91 91 91 90 89 88
51 51 52 52 52 52 53 53 52 51 51 50 49 49 49 50 50 49 47 45 45 47 51 53 53 52 53 54 56 56 57 58 61 63 66 70 75 81 87 92 94 96 100 104 109 112 111 107 103 101 99 100 101 103 103 102 101 100 98 96 95 94 94 94 94 95 95 95 94 94 94 93 93 92 92 92 91 91 90 90 91 91 90 90 90
49 50 50 51 52 52 52 53 52 51 50 50 48 47 46 47 47 48 48 46 44 43 45 48 51 52 51 52 53 55 56 57 58 60 63 66 70 75 82 88 93 95 97 101 105 110 113 112 110 106 103 101 101 102 104 104 104 103 102 100 98 97 96 96 95 96 96 96 96 96 95 95 94 94 93 93 92 92 92 92 92 92 92 93 93
48 49 50 51 51 52 52 51 51 50 49 48 47 46 45 44 44 45 45 46 45 44 43 43 46 49 51 51 51 52 54 56 57 58 60 62 66 70 76 82 88 92 95 98 101 106 110 113 114 112 108 106 104 103 103 104 105 106 105 104 103 101 99 98 97 97 96 96 96 96 96 96 96 96 95 95 95 94 94 94 95 95 96 96 96
47 48 49 50 50 50 50 50 49 48 47 46 46 44 43 42 41 41 41 42 43 44 44 43 42 44 47 49 50 50 52 54 55 57 57 59 62 66 71 76 82 87 92 95 98 102 106 110 113 114 113 111 108 106 105 104 105 106 107 107 106 105 104 102 101 100 99 98 97 97 97 97 97 97 97 97 97 97 97 97 97 98 98 98 98
47 47 47 48 48 48 47 47 47 47 46 45 45 44 43 41 40 39 39 39 39 40 41 42 42 42 43 45 47 49 50 51 53 54 56 58 59 62 66 70 75 81 86 91 95 99 102 106 110 113 115 115 113 111 109 107 106 107 107 108 108 108 107 107 105 104 103 102 101 100 100 99 99 99 99 99 99 99 99 99 99 99 100 100 100
46 46 46 46 46 46 46 45 45 45 45 45 44 44 43 42 40 39 38 37 37 38 38 39 40 41 41 41 43 45 47 49 50 52 54 56 57 59 62 65 69 74 79 85 90 94 98 102 106 110 113 115 116 116 114 112 110 109 109 109 109 109 109 109 109 108 108 106 105 104 103 103 103 103 102 102 102 101 101 101 101 102 102 102 102
44 44 44 44 44 44 44 44 44 44 45 45 44 44 43 42 41 40 38 37 35 35 36 36 37 38 40 40 40 42 44 46 48 50 51 53 55 57 59 61 64 68 72 78 83 89 93 97 101 105 108 112 115 117 117 116 115 113 112 112 111 111 111 111 110 110 110 110 109 108 107 106 106 106 106 106 105 105 104 104 103 103 104 104 104
42 42 42 42 42 42 42 42 42 43 43 44 45 44 44 43 42 40 39 38 36 35 34 34 35 35 37 38 39 40 41 43 45 48 49 51 52 54 56 58 61 63 66 71 76 82 87 92 96 99 103 107 111 115 117 118 118 117 116 115 114 113 113 113 112 112 111 111 112 112 111 110 109 109 109 109 109 108 108 107 107 106 106 106 106
40 40 40 40 40 41 41 41 42 42 42 43 44 44 44 43 41 40 39 38 37 36 35 34 33 33 34 35 37 38 39 41 43 45 47 49 50 52 54 55 57 60 63 65 69 74 79 84 89 94 98 101 105 108 112 116 118 119 119 119 117 116 115 114 114 114 113 113 112 113 113 113 112 112 112 112 112 112 112 111 111 111 110 110 110
38 39 39 39 40 40 41 41 42 42 41 41 42 43 43 43 42 41 39 38 36 35 35 35 34 33 32 32 34 36 37 39 41 43 45 46 48 50 52 53 55 57 59 62 65 68 71 76 81 86 91 95 99 102 105 109 112 116 118 120 120 120 119 118 117 116 115 115 114 114 114 114 114 114 115 115 115 116 116 116 116 116 116 116 115
37 37 38 38 39 39 40 41 41 41 41 41 41 41 41 41 41 40 39 38 36 34 33 34 34 33 32 31 31 32 34 36 38 40 42 44 45 47 49 51 53 54 56 59 62 64 67 70 73 77 82 87 92 96 99 102 105 108 112 115 117 119 120 120 120 119 118 117 116 116 115 115 115 115 116 116 117 117 118 119 119 120 120 120 121
35 36 37 38 38 39 39 40 41 41 42 41 41 41 40 40 40 40 39 38 37 35 33 32 33 33 33 31 30 30 31 33 35 37 40 42 43 45 46 49 51 53 54 56 58 61 64 66 69 71 74 78 82 87 92 96 99 101 104 107 110 113 115 117 118 119 119 119 119 118 117 117 117 117 117 117 118 118 119 119 120 121 121 122 123
35 35 36 37 38 39 39 40 40 41 42 42 42 42 41 41 40 40 40 39 38 37 35 33 32 32 33 32 30 29 30 31 32 34 36 39 41 43 44 46 48 50 52 54 56 58 61 63 66 68 70 72 75 78 82 87 91 95 98 101 103 106 108 111 113 115 116 117 118 118 118 119 119 119 119 119 119 119 119 120 120 121 122 122 123
34 35 36 37 37 38 39 40 40 40 41 41 41 41 42 42 41 40 39 40 39 38 37 34 32 31 31 32 31 30 29 30 30 31 32 35 38 40 42 43 45 47 49 52 54 56 58 60 63 65 67 69 71 73 75 78 82 86 90 94 97 99 102 104 107 109 111 112 113 115 116 117 117 118 118 119 119 120 120 120 121 121 122 123 123
34 35 36 36 37 38 39 40 40 41 41 41 41 41 41 41 41 41 40 40 40 40 39 37 35 33 32 31 31 31 30 30 30 30 30 31 34 37 39 41 42 44 46 48 50 53 55 57 59 62 64 66 68 70 71 73 76 78 81 84 88 92 95 98 100 103 105 107 109 110 112 113 114 115 115 116 117 118 118 119 120 121 121 122 123
34 35 36 37 38 38 39 39 40 41 41 42 42 42 41 41 42 42 42 41 41 41 41 40 38 36 33 31 30 30 31 31 31 30 30 30 31 33 36 38 40 41 43 45 47 49 52 54 56 59 61 63 66 68 69 71 72 74 75 78 81 84 87 90 93 96 98 101 103 105 107 108 110 111 112 113 114 114 115 116 117 117 118 119 120
34 35 36 38 39 40 40 41 41 41 42 42 42 42 42 42 42 42 42 42 41 41 41 40 39 38 36 34 31 30 30 30 31 31 31 31 30 31 32 35 37 39 40 41 43 46 48 50 53 55 57 60 62 65 67 69 70 71 72 74 76 78 80 83 86 88 91 93 96 98 100 102 104 106 107 109 110 111 111 112 113 114 114 115 115
35 36 37 38 39 41 42 43 43 43 43 43 43 43 43 43 42 42 42 42 42 42 41 40 39 39 38 37 35 32 30 29 29 30 31 31 31 31 31 32 33 36 38 39 41 42 44 47 49 51 54 56 58 61 63 66 68 69 71 72 73 75 76 78 80 82 84 87 89 91 93 95 97 99 101 103 104 105 106 107 108 109 110 110 111
Wind_Direction
265 267 268 269 270 271 272 273 275 277 278 280 282 284 287 290 292 295 298 301 302 303 302 303 302 297 284 263 240 224 218 218 221 219 216 218 223 227 229 231 234 234 236 242 249 256 259 258 259 262 264 261 255 251 249 248 254 261 260 259 261 266 275 279 280 282 282 281 279 275 274 274 274 274 275 276 276 275 275 278 280 283 287 292 296
265 267 268 270 270 271 272 273 275 276 278 279 281 283 286 289 292 294 297 301 302 303 303 303 303 297 281 255 228 215 212 214 214 213 213 216 220 225 228 229 231 232 233 239 249 256 258 259 262 264 267 267 260 251 247 246 253 260 260 260 264 269 273 274 274 277 281 283 281 277 276 276 276 277 278 278 274 272 272 275 278 283 287 291 294
266 267 268 270 271 271 272 273 275 276 278 279 281 283 286 288 291 294 297 300 302 302 303 304 303 296 277 244 218 209 210 210 208 209 213 216 220 226 229 229 229 230 233 238 246 252 257 260 262 264 267 268 262 253 247 245 250 256 257 260 266 268 269 271 273 278 285 286 280 273 271 273 276 278 279 278 275 272 273 277 281 285 288 290 293
267 268 269 270 271 272 273 274 275 276 278 279 281 283 285 287 289 293 296 299 301 302 302 304 303 295 271 232 212 207 210 210 206 209 216 220 222 227 231 230 228 229 231 236 242 247 254 260 260 262 267 268 263 254 246 244 247 248 250 259 267 267 268 270 273 279 287 286 277 270 270 273 277 279 278 277 276 274 276 280 282 285 288 291 293
268 268 269 271 272 273 274 274 275 277 278 279 281 283 285 287 288 292 295 298 300 301 302 303 303 294 263 222 207 206 208 208 208 212 219 223 225 228 231 230 227 227 229 233 239 245 253 260 262 263 267 267 263 252 243 241 242 242 248 259 264 264 265 269 274 282 289 285 275 271 274 277 279 278 277 276 276 275 277 279 281 285 291 293 293
269 269 269 271 272 273 274 275 276 277 278 279 281 282 284 286 288 291 294 297 299 300 301 302 301 292 255 214 203 204 205 206 209 213 218 222 225 228 230 230 227 227 229 230 233 238 247 256 260 263 265 263 257 248 240 238 237 241 249 257 259 261 265 270 275 282 287 285 279 276 277 280 280 278 277 277 278 276 277 279 282 286 291 292 292
270 270 270 271 272 273 274 275 276 277 278 279 281 282 284 286 288 291 293 296 298 299 300 301 299 289 249 210 201 204 205 207 210 212 216 220 224 226 228 227 226 226 228 229 230 233 239 250 258 261 261 255 248 242 237 234 235 243 252 255 258 262 266 270 275 279 282 283 280 279 281 284 283 281 280 278 279 279 278 278 281 285 288 289 290
272 272 272 272 273 274 275 276 277 277 278 279 281 282 284 285 287 290 292 294 296 297 299 299 297 287 246 209 201 205 207 209 212 212 215 219 223 226 227 226 226 226 226 229 232 235 240 247 255 258 257 249 241 236 231 232 239 249 254 256 258 262 266 268 273 277 280 281 280 279 283 284 283 284 283 279 280 281 278 276 278 282 284 286 287
273 273 273 274 274 275 276 277 277 278 279 280 281 282 284 285 286 289 290 293 295 295 297 297 295 285 244 210 203 206 210 212 214 215 217 220 223 226 227 226 226 227 229 232 237 241 245 248 252 255 252 242 234 232 232 238 248 253 255 255 258 262 265 267 270 274 277 278 277 278 281 282 282 284 284 280 280 280 276 275 276 278 281 284 285
274 274 274 275 275 276 277 277 278 279 279 280 281 281 283 284 285 287 289 291 293 293 295 294 292 282 245 214 206 208 211 214 216 217 219 221 224 227 227 226 226 228 231 235 239 244 247 247 249 252 249 238 232 234 240 247 253 255 255 255 257 262 265 266 269 273 275 274 274 276 280 281 281 281 280 279 279 277 274 272 273 273 277 283 286
275 275 275 275 276 276 277 278 278 279 279 279 280 281 282 283 284 286 288 289 290 291 292 291 288 278 248 220 210 209 212 215 217 219 219 220 222 225 226 226 226 228 231 234 236 240 244 245 245 247 247 241 235 236 242 248 252 256 257 257 259 261 263 265 268 270 272 271 272 274 278 280 282 280 277 276 276 274 271 270 270 271 274 281 286
275 275 275 275 276 276 277 277 278 278 279 279 280 280 282 283 284 285 286 287 288 288 289 288 284 274 250 224 213 211 214 217 218 219 219 219 221 223 224 224 225 227 229 231 231 232 237 243 245 245 246 246 242 240 243 246 250 254 256 257 259 259 260 263 265 267 269 268 269 272 275 277 279 279 278 275 272 271 269 269 270 270 271 277 283
274 274 275 275 275 276 276 277 277 278 279 279 280 281 282 283 283 284 284 285 285 286 285 284 280 272 252 228 216 214 217 218 219 220 220 220 220 221 222 223 224 224 226 228 228 228 233 240 244 245 247 247 245 243 244 246 248 250 251 253 255 256 258 260 261 264 266 265 266 269 272 274 276 277 277 275 272 271 270 269 269 269 271 276 280
274 274 275 275 275 275 276 277 277 278 278 279 280 281 282 282 282 283 283 283 283 283 283 281 277 269 253 231 218 217 219 220 221 221 222 221 220 219 219 220 221 222 224 226 226 227 233 238 241 244 245 244 241 238 241 245 246 246 247 249 251 252 254 256 257 261 263 262 262 265 268 271 273 273 274 273 272 272 270 269 269 271 274 277 279
275 275 275 275 275 276 276 277 277 278 278 279 280 280 281 281 282 282 282 282 282 281 280 279 275 267 254 235 222 219 221 222 222 222 222 222 222 220 218 217 218 220 222 224 225 227 230 232 234 239 243 243 240 237 237 241 243 244 245 247 248 249 251 254 257 259 261 259 259 261 265 268 269 268 270 272 271 270 268 268 270 273 277 278 278
276 276 276 276 276 277 277 277 277 278 278 279 279 279 280 280 280 281 281 281 280 280 278 277 272 265 255 239 226 222 222 224 223 221 222 223 223 223 221 220 219 220 221 223 225 228 229 229 230 236 241 245 245 243 242 244 245 246 247 248 249 250 252 255 258 259 259 257 258 260 263 265 266 267 269 271 270 268 268 269 271 273 275 276 277
277 277 277 277 277 277 277 278 278 278 278 278 278 278 279 279 279 279 280 279 279 278 277 275 271 264 256 243 231 225 224 225 223 222 221 222 223 223 223 223 222 222 222 223 224 228 231 232 234 238 242 245 246 245 245 247 249 248 247 248 250 252 255 257 259 260 258 256 257 260 261 263 265 267 269 271 271 270 270 271 270 270 271 274 276
278 278 278 278 278 278 278 278 278 278 278 278 278 278 278 278 278 278 278 278 278 277 276 274 270 264 257 248 237 229 226 226 225 223 222 222 222 222 223 223 223 223 223 223 225 228 232 235 236 240 243 245 245 243 242 244 245 245 247 249 251 254 257 258 259 259 257 257 259 261 261 261 263 264 267 269 269 270 270 269 268 268 270 272 275
278 279 279 279 279 279 279 278 278 278 278 278 278 278 278 277 277 277 277 277 276 276 275 273 270 265 257 251 242 233 228 226 226 225 224 223 222 223 223 223 223 223 223 224 226 229 233 235 236 238 241 243 245 243 242 243 244 245 248 252 254 256 257 258 259 258 256 257 260 261 260 260 261 263 265 266 267 268 269 268 267 268 270 271 272
279 279 279 279 279 279 279 279 279 279 278 278 278 278 277 277 277 276 276 275 275 274 273 272 270 266 260 253 247 237 230 227 227 226 225 224 224 224 224 223 223 224 224 225 227 230 231 233 234 235 236 239 243 244 244 244 244 246 248 252 255 257 257 258 258 257 256 257 259 259 259 260 261 262 263 265 266 266 267 269 270 270 270 270 271
281 281 281 280 280 280 280 280 280 280 279 279 278 278 277 277 276 276 275 274 273 272 272 270 269 266 262 256 249 241 232 228 227 226 225 225 225 225 225 225 224 224 225 225 227 229 230 230 231 231 232 234 238 242 243 243 243 245 248 251 255 256 256 257 257 256 256 257 258 258 259 260 261 262 263 264 265 266 266 268 270 271 272 273 273
282 282 281 281 281 281 281 280 280 280 280 280 279 279 278 277 276 276 275 274 273 272 271 269 268 265 262 257 250 243 235 229 227 227 226 226 226 226 227 227 226 225 225 226 227 229 229 229 229 229 230 231 233 236 240 243 244 245 247 250 253 255 256 256 255 255 257 260 261 260 260 261 261 261 262 263 264 265 266 267 269 270 272 273 274
282 282 282 281 281 281 281 281 281 280 280 280 280 279 279 278 277 276 275 274 273 272 270 268 266 264 261 256 250 243 237 231 228 227 227 227 227 227 228 229 229 228 227 227 227 228 229 230 229 228 228 230 232 234 237 240 243 245 247 249 251 253 254 255 255 256 258 260 261 259 259 259 260 261 261 262 263 264 265 266 268 269 271 272 273
283 283 283 283 282 282 282 282 282 282 281 281 280 280 279 278 277 276 275 274 272 271 269 267 265 262 258 254 248 243 238 234 229 228 227 227 228 228 228 229 230 231 231 230 229 228 229 230 231 230 229 230 232 235 238 240 242 244 246 248 250 252 252 253 255 256 257 258 257 257 257 258 259 260 261 261 261 262 264 266 268 270 271 273 273
284 284 284 284 284 283 283 283 283 283 282 282 281 281 280 279 278 277 275 274 272 270 268 266 264 261 257 252 247 242 238 235 232 229 228 228 228 228 229 229 230 232 232 233 232 231 231 231 232 234 234 234 235 237 239 241 243 245 246 247 249 250 251 252 253 254 255 255 255 256 257 257 258 259 259 260 261 262 264 266 268 270 271 272 272
284 284 284 284 284 284 284 285 284 284 284 283 283 282 281 280 278 277 275 274 272 270 268 265 263 260 257 252 246 241 238 236 233 231 229 228 228 229 229 230 231 231 232 233 234 234 233 233 234 235 237 238 239 240 242 243 244 246 247 248 249 250 251 252 252 253 254 255 255 256 256 256 257 258 259 260 261 263 264 266 268 269 270 271 272
285 286 286 286 286 286 286 286 286 286 285 284 283 282 282 280 279 278 276 274 272 270 268 266 263 259 257 253 248 242 238 235 234 232 230 229 229 229 229 230 231 232 232 233 234 235 235 235 235 236 238 240 241 243 244 245 246 247 248 249 250 251 252 251 252 253 254 255 256 257 257 257 258 259 260 261 262 263 265 266 267 269 270 271 273
287 287 287 287 288 288 288 287 287 287 286 285 284 282 281 281 279 278 276 274 273 270 268 266 263 260 257 254 250 245 239 235 234 233 232 230 229 229 229 230 230 232 233 234 234 235 235 236 236 237 238 239 241 243 244 246 246 247 249 249 250 251 252 251 251 252 253 255 256 256 257 257 258 260 261 262 263 264 265 266 267 269 271 272 273
288 288 288 289 289 289 289 289 289 288 287 287 286 284 282 281 280 278 277 275 273 271 269 266 263 261 258 254 251 247 243 238 234 233 232 232 230 229 229 230 230 231 232 234 235 236 236 237 237 237 237 238 240 241 243 245 246 247 248 249 250 251 252 252 252 252 253 254 255 255 256 257 258 260 261 262 263 263 264 266 268 269 271 272 273
288 289 290 290 291 291 291 291 291 291 290 289 288 287 285 283 280 278 277 275 274 272 269 267 264 262 259 256 252 249 245 241 237 233 232 232 232 231 230 230 230 231 231 233 235 236 237 238 238 238 238 238 239 241 242 243 245 246 247 249 250 250 251 252 253 253 253 254 254 255 256 257 258 260 261 262 263 264 265 267 268 269 271 272 273
290 291 292 292 293 293 293 293 293 292 292 291 290 289 287 285 283 280 277 276 274 272 270 268 266 263 260 257 254 251 247 244 240 236 233 232 232 232 231 230 230 231 231 232 233 235 237 239 240 240 240 239 239 240 242 243 244 245 246 247 249 250 251 252 253 254 254 255 255 255 256 257 258 260 261 262 263 264 265 267 267 268 270 271 272
292 293 294 294 295 295 296 296 296 295 294 294 292 291 290 288 286 283 280 277 275 273 271 269 267 265 262 259 256 253 250 246 243 239 236 233 232 232 232 231 230 231 231 232 232 233 235 237 239 240 241 241 241 241 241 243 244 245 246 246 248 249 250 251 252 253 254 255 255 256 256 257 259 260 261 262 263 264 265 266 267 268 268 269 269
294 295 296 297 298 299 299 299 299 299 298 298 296 295 293 292 289 287 283 279 276 274 272 270 267 265 263 261 258 255 252 249 245 242 239 236 234 233 233 233 232 231 231 232 232 232 233 235 237 239 240 242 242 242 242 242 243 245 245 246 247 248 249 250 251 252 254 255 256 257 257 258 259 260 262 263 263 264 265 266 267 268 268 269 269
296 297 299 300 301 302 303 303 303 303 302 301 300 298 296 294 293 290 288 284 279 275 273 272 269 266 263 262 260 258 254 251 248 245 241 238 236 234 233 233 233 233 232 232 232 233 233 234 235 237 239 240 242 243 243 242 243 244 245 246 247 248 249 250 250 251 252 254 255 256 257 258 259 260 261 262 263 264 264 265 266 267 268 269 269
300 301 303 304 305 305 305 305 305 305 304 303 302 300 298 295 294 292 290 288 284 279 274 272 271 269 266 262 260 259 257 254 250 247 244 241 238 236 234 234 234 234 234 233 233 233 234 234 235 236 237 238 240 242 243 243 243 244 244 245 246 247 248 249 250 251 252 253 254 255 256 258 259 260 260 261 262 263 264 265 266 266 267 268 268
303 304 305 305 305 305 305 305 305 306 306 305 304 303 300 298 295 293 292 290 288 284 279 274 271 270 268 265 262 259 258 256 253 250 247 244 241 238 236 235 235 235 235 235 234 234 234 234 235 235 236 237 239 240 242 243 244 244 244 245 246 246 247 248 249 250 251 252 253 254 255 257 258 259 260 261 262 263 263 264 265 266 267 268 268
305 305 305 305 305 306 306 307 307 307 307 307 306 305 304 302 299 296 293 291 289 287 284 280 275 271 269 267 265 262 259 257 255 253 250 247 244 241 238 237 236 235 235 236 236 235 235 235 235 236 236 237 238 239 240 242 243 244 244 245 245 246 247 247 248 249 250 251 252 254 255 256 257 258 259 260 261 262 263 264 265 266 267 268 269
305 305 305 305 306 306 307 308 308 309 310 310 310 310 308 307 304 301 298 295 292 288 286 283 280 275 271 268 266 264 262 259 257 255 252 249 247 244 241 239 238 237 236 236 236 237 236 236 236 236 237 237 238 239 240 241 242 243 244 245 245 246 246 247 247 248 249 250 251 252 253 254 255 256 257 258 260 261 262 263 264 265 266 267 268
305 306 306 306 307 308 309 311 312 313 314 314 314 313 313 312 310 308 304 301 297 293 289 285 282 279 276 271 267 265 263 261 259 257 254 252 249 247 244 242 240 238 237 237 237 237 237 237 237 237 237 238 238 239 240 241 242 243 244 244 245 246 246 247 247 248 249 249 250 251 252 253 254 255 256 257 258 259 260 262 263 264 265 266 267
306 307 308 309 310 312 314 315 316 317 317 317 317 317 317 316 315 313 310 307 302 298 293 289 285 281 278 275 271 266 264 262 261 258 256 254 252 250 247 245 243 241 239 238 237 237 237 238 238 238 238 238 239 239 240 241 242 242 243 244 245 246 247 247 248 248 249 249 250 251 252 252 253 254 255 256 257 258 259 260 261 262 263 265 266
307 308 310 311 313 314 315 317 318 319 320 321 321 320 319 319 318 317 315 313 309 305 300 295 290 285 281 278 275 271 266 263 261 260 258 256 254 252 250 248 246 244 242 240 239 238 238 238 238 239 239 239 239 240 240 241 242 243 243 244 245 246 247 248 249 249 249 250 250 251 251 252 253 254 254 255 256 257 258 259 259 260 261 262 264
310 311 313 314 315 316 317 318 320 321 323 323 322 321 321 321 320 320 320 317 314 311 306 301 296 291 285 281 277 274 271 267 263 261 259 257 256 254 253 250 248 246 245 243 241 240 239 239 239 239 240 240 240 241 241 241 242 243 244 245 245 246 247 248 249 250 250 251 251 251 252 252 253 253 254 255 256 257 258 258 259 260 261 261 262
312 314 315 317 319 320 321 322 323 323 324 324 324 324 324 323 323 323 322 320 317 314 311 307 302 297 292 286 281 277 274 271 267 264 261 259 257 255 254 253 251 249 247 245 244 243 242 241 240 240 240 241 241 242 242 242 242 243 244 245 246 246 247 248 248 249 250 251 252 252 253 253 254 254 255 255 256 257 258 259 259 260 261 262 262
315 316 318 320 321 322 323 324 324 324 325 326 326 326 326 326 325 325 323 322 320 318 315 312 308 303 298 293 287 281 276 273 270 268 265 262 259 257 255 254 253 251 249 247 246 245 244 243 242 242 241 241 242 242 243 243 243 243 244 245 246 247 247 248 249 249 250 251 252 252 253 254 254 255 255 256 257 257 258 259 259 260 261 262 263
317 319 320 322 323 324 325 325 326 326 327 328 328 328 328 328 328 327 326 325 324 322 320 317 313 309 304 299 294 288 282 276 273 270 268 266 263 260 257 255 253 252 251 250 248 247 246 245 245 244 243 243 243 243 243 244 244 245 245 245 246 246 247 248 249 250 250 251 252 252 253 254 254 255 256 256 257 258 259 259 260 261 261 262 263
319 321 323 324 326 327 327 328 329 329 329 330 330 330 330 330 330 330 330 329 327 326 324 322 319 315 310 306 301 296 289 282 277 273 270 268 266 263 260 258 255 253 252 251 250 248 247 247 246 246 246 245 245 244 244 245 245 245 246 246 246 247 247 248 249 250 250 251 252 252 253 254 254 255 256 256 257 258 259 260 260 261 262 263 263
322 324 325 327 328 329 330 330 331 331 331 331 332 332 332 331 332 332 332 332 330 328 326 324 322 319 316 312 307 302 297 290 284 278 273 270 268 266 264 261 258 256 254 253 251 250 249 248 247 247 247 247 247 246 246 246 246 246 246 247 247 248 248 249 249 250 250 251 252 253 253 254 255 256 256 257 258 258 259 260 261 261 262 263 264
324 326 327 328 329 330 331 332 332 333 333 333 333 333 333 334 334 334 334 334 333 332 330 328 326 324 322 318 313 308 303 297 292 286 279 274 270 268 266 264 262 259 257 255 254 252 251 250 249 249 248 248 248 248 248 248 248 248 248 248 248 249 249 249 250 250 251 251 252 253 253 254 255 256 257 258 258 259 260 261 261 262 263 264 264
325 327 329 330 330 331 332 333 334 334 335 334 334 334 335 336 336 336 336 336 336 334 333 331 328 326 324 322 318 313 308 303 298 293 287 281 275 271 269 267 265 262 260 258 256 255 253 252 251 250 250 249 249 249 249 249 249 249 249 249 249 250 250 250 251 251 252 252 253 253 254 254 255 256 257 258 258 259 260 261 262 263 264 264 265
326 329 330 331 332 333 333 334 335 336 336 336 336 336 336 337 337 337 337 337 337 336 334 332 330 328 326 324 322 318 312 307 302 298 293 288 282 276 272 269 267 265 263 261 258 257 255 254 253 252 251 251 250 250 250 250 250 250 250 250 250 251 251 251 252 252 253 253 254 254 255 255 256 257 257 258 259 259 260 261 262 263 264 265 266
328 330 332 333 334 334 335 335 336 336 337 337 337 337 337 337 337 337 338 338 337 337 335 334 332 330 328 326 324 322 317 311 305 300 296 293 289 284 278 272 269 267 265 263 261 259 258 256 255 254 253 252 252 251 251 251 251 251 251 251 252 252 252 252 253 253 254 254 255 255 256 256 257 257 258 259 259 260 261 262 262 263 264 265 266
Height
10637 10637 10638 10638 10639 10639 10640 10640 10641 10641 10641 10640 10639 10638 10638 10637 10635 10634 10631 10629 10628 10626 10624 10620 10616 10613 10612 10612 10613 10614 10616 10619 10622 10625 10627 10630 10633 10636 10638 10640 10642 10644 10645 10645 10645 10644 10644 10645 10645 10646 10646 10645 10645 10647 10649 10652 10654 10655 10655 10654 10653 10654 10654 10653 10651 10651 10650 10650 10648 10646 10645 10645 10645 10644 10644 10645 10645 10644 10644 10645 10644 10642 10641 10640 10639
10630 10630 10630 10631 10632 10632 10633 10633 10634 10634 10634 10633 10633 10632 10631 10630 10629 10627 10625 10623 10622 10619 10617 10615 10611 10608 10606 10606 10608 10610 10612 10615 10618 10621 10624 10627 10629 10631 10632 10634 10637 10639 10640 10641 10640 10640 10640 10641 10640 10641 10641 10640 10639 10641 10644 10647 10649 10651 10651 10648 10646 10648 10649 10647 10646 10646 10646 10645 10644 10642 10640 10639 10639 10639 10639 10640 10641 10639 10640 10641 10640 10638 10637 10635 10634
10623 10623 10623 10624 10624 10625 10625 10626 10626 10626 10626 10626 10626 10625 10624 10624 10622 10620 10618 10617 10615 10613 10611 10609 10607 10603 10601 10602 10604 10605 10607 10611 10614 10617 10620 10622 10624 10625 10627 10628 10631 10633 10635 10635 10635 10635 10636 10635 10634 10635 10635 10634 10635 10636 10639 10642 10646 10648 10647 10641 10638 10641 10643 10641 10641 10641 10641 10640 10639 10638 10636 10635 10635 10634 10634 10636 10637 10636 10636 10637 10636 10634 10633 10631 10629
10615 10616 10616 10616 10617 10617 10618 10619 10619 10619 10619 10619 10619 10618 10618 10617 10616 10614 10612 10611 10609 10606 10604 10603 10601 10598 10596 10597 10599 10601 10604 10608 10611 10614 10616 10617 10618 10619 10620 10622 10624 10627 10628 10629 10629 10630 10630 10628 10628 10629 10628 10628 10630 10632 10633 10637 10642 10644 10640 10634 10631 10633 10635 10636 10636 10636 10635 10635 10635 10633 10633 10632 10630 10629 10629 10631 10632 10632 10632 10634 10633 10630 10628 10626 10624
10608 10608 10609 10609 10609 10610 10610 10611 10611 10611 10611 10611 10611 10611 10610 10610 10609 10607 10606 10605 10603 10600 10598 10597 10596 10593 10592 10593 10595 10598 10601 10603 10606 10609 10611 10612 10613 10613 10613 10615 10617 10619 10621 10622 10623 10625 10625 10622 10621 10622 10621 10622 10625 10627 10629 10632 10636 10637 10635 10631 10625 10624 10628 10631 10632 10631 10630 10631 10630 10629 10629 10628 10626 10625 10625 10626 10628 10629 10629 10630 10629 10627 10625 10623 10621
10601 10601 10601 10602 10602 10602 10603 10603 10603 10603 10603 10603 10603 10603 10603 10602 10601 10601 10600 10599 10596 10594 10592 10591 10590 10589 10587 10588 10591 10593 10595 10597 10598 10601 10603 10605 10605 10605 10607 10609 10611 10613 10615 10616 10618 10620 10620 10617 10616 10616 10616 10617 10619 10622 10624 10627 10630 10631 10629 10625 10619 10618 10623 10626 10626 10626 10626 10626 10626 10624 10624 10624 10623 10622 10622 10622 10625 10626 10626 10626 10625 10623 10622 10620 10618
10593 10594 10594 10594 10595 10595 10595 10595 10596 10596 10595 10595 10595 10595 10595 10595 10594 10593 10593 10592 10590 10588 10586 10585 10585 10583 10582 10584 10586 10587 10589 10590 10591 10593 10596 10597 10597 10598 10600 10603 10605 10607 10610 10611 10612 10614 10614 10612 10611 10611 10611 10612 10613 10616 10620 10622 10625 10624 10620 10617 10616 10616 10618 10620 10621 10622 10622 10622 10622 10620 10619 10619 10618 10618 10618 10619 10620 10622 10623 10622 10621 10620 10619 10617 10614
10585 10586 10586 10587 10587 10587 10587 10588 10588 10587 10587 10587 10587 10587 10587 10587 10587 10586 10586 10586 10584 10582 10581 10579 10579 10578 10577 10579 10581 10582 10583 10584 10585 10587 10589 10590 10591 10592 10594 10596 10599 10602 10604 10605 10606 10607 10607 10606 10606 10606 10607 10607 10607 10610 10614 10616 10618 10616 10614 10614 10614 10613 10614 10615 10616 10616 10617 10618 10618 10616 10615 10614 10613 10614 10615 10615 10615 10617 10618 10617 10617 10616 10615 10614 10611
10578 10578 10578 10578 10579 10579 10579 10579 10579 10579 10579 10579 10579 10579 10579 10579 10579 10579 10578 10578 10578 10577 10575 10574 10573 10572 10572 10574 10576 10576 10578 10579 10579 10580 10581 10583 10584 10586 10588 10591 10594 10596 10598 10600 10600 10601 10601 10601 10600 10600 10601 10602 10602 10604 10607 10609 10610 10609 10609 10611 10611 10609 10610 10610 10610 10611 10612 10613 10613 10613 10612 10610 10609 10610 10612 10611 10611 10612 10612 10612 10612 10612 10611 10611 10609
10570 10571 10571 10570 10570 10570 10570 10571 10571 10571 10570 10570 10570 10570 10571 10571 10571 10571 10571 10571 10571 10570 10570 10569 10568 10567 10567 10568 10570 10571 10572 10573 10573 10573 10574 10576 10578 10580 10583 10585 10588 10590 10592 10594 10594 10594 10595 10595 10594 10593 10594 10595 10597 10598 10600 10601 10602 10603 10604 10606 10606 10605 10605 10604 10605 10606 10607 10607 10608 10608 10608 10607 10605 10606 10608 10608 10607 10608 10607 10607 10608 10608 10607 10607 10606
10563 10563 10563 10563 10562 10562 10562 10562 10562 10562 10562 10562 10561 10562 10562 10563 10563 10564 10564 10564 10564 10564 10563 10563 10562 10561 10561 10563 10564 10565 10566 10567 10567 10568 10569 10570 10572 10574 10576 10579 10582 10584 10586 10588 10589 10589 10589 10589 10589 10587 10586 10588 10590 10592 10593 10595 10596 10598 10599 10600 10602 10601 10599 10599 10599 10599 10600 10602 10603 10603 10603 10603 10602 10602 10604 10605 10604 10604 10603 10602 10603 10604 10603 10603 10602
10556 10556 10555 10555 10554 10554 10554 10554 10554 10554 10553 10553 10553 10553 10553 10554 10555 10556 10556 10557 10557 10557 10557 10557 10557 10556 10555 10557 10558 10559 10560 10560 10561 10562 10563 10564 10566 10568 10570 10573 10575 10577 10580 10582 10583 10584 10584 10583 10584 10582 10581 10582 10584 10585 10585 10587 10590 10592 10592 10594 10596 10595 10595 10594 10593 10593 10595 10596 10597 10597 10598 10597 10597 10597 10599 10600 10600 10600 10600 10598 10598 10599 10599 10598 10598
10548 10548 10548 10547 10547 10546 10546 10546 10545 10545 10545 10544 10544 10544 10544 10545 10546 10547 10548 10549 10550 10550 10550 10550 10550 10550 10549 10550 10552 10553 10553 10553 10554 10555 10557 10559 10560 10562 10564 10567 10569 10571 10573 10575 10578 10579 10579 10578 10578 10577 10577 10577 10577 10578 10578 10578 10582 10585 10585 10586 10588 10589 10590 10590 10589 10589 10590 10590 10591 10591 10591 10591 10592 10592 10593 10593 10594 10594 10595 10594 10593 10594 10595 10594 10593
10541 10540 10540 10539 10539 10538 10538 10537 10537 10536 10536 10536 10535 10535 10535 10535 10536 10537 10539 10540 10541 10542 10543 10543 10543 10543 10543 10543 10545 10546 10546 10546 10547 10549 10550 10552 10554 10555 10557 10560 10562 10564 10566 10568 10571 10572 10570 10570 10570 10570 10571 10571 10570 10571 10571 10571 10573 10576 10577 10577 10580 10583 10584 10583 10584 10585 10585 10585 10585 10586 10586 10586 10586 10586 10586 10587 10588 10589 10589 10589 10588 10588 10590 10590 10589
10533 10532 10531 10530 10530 10530 10529 10529 10528 10528 10527 10527 10527 10526 10526 10525 10526 10527 10528 10530 10532 10533 10535 10535 10536 10536 10536 10536 10537 10539 10539 10539 10540 10542 10544 10545 10547 10548 10550 10552 10553 10555 10558 10560 10563 10563 10561 10561 10562 10561 10562 10562 10562 10565 10565 10564 10565 10568 10568 10568 10572 10575 10576 10575 10578 10580 10580 10579 10580 10582 10583 10581 10578 10580 10581 10581 10582 10582 10582 10583 10583 10583 10585 10584 10583
10524 10523 10522 10521 10521 10521 10521 10520 10519 10519 10518 10518 10517 10517 10516 10516 10516 10516 10517 10519 10521 10523 10525 10526 10527 10528 10528 10528 10529 10531 10532 10532 10532 10534 10536 10538 10540 10541 10543 10544 10545 10547 10549 10552 10554 10553 10553 10554 10554 10553 10554 10555 10557 10559 10559 10558 10561 10562 10562 10562 10562 10565 10568 10570 10572 10574 10574 10573 10574 10576 10577 10573 10570 10573 10576 10575 10575 10576 10576 10576 10577 10578 10579 10578 10577
10516 10514 10513 10512 10512 10512 10511 10510 10510 10509 10508 10508 10508 10507 10507 10506 10506 10506 10507 10508 10509 10512 10514 10516 10518 10519 10519 10520 10520 10521 10523 10524 10525 10526 10527 10529 10532 10533 10534 10536 10537 10539 10541 10544 10545 10545 10544 10545 10546 10547 10547 10548 10551 10553 10554 10555 10558 10557 10554 10553 10553 10557 10562 10564 10565 10567 10567 10566 10567 10570 10570 10567 10564 10566 10569 10569 10569 10569 10570 10570 10569 10570 10572 10571 10571
10507 10506 10504 10503 10502 10502 10501 10501 10500 10499 10498 10498 10497 10497 10496 10496 10496 10496 10496 10497 10498 10500 10502 10504 10507 10508 10509 10510 10511 10511 10513 10515 10516 10517 10519 10520 10523 10524 10526 10527 10529 10531 10533 10535 10537 10536 10535 10536 10539 10541 10542 10543 10545 10548 10548 10548 10549 10547 10544 10544 10546 10550 10554 10557 10559 10561 10560 10558 10560 10563 10562 10560 10559 10560 10561 10562 10563 10563 10563 10562 10561 10562 10565 10565 10566
10498 10497 10495 10493 10492 10491 10491 10490 10489 10489 10488 10487 10486 10485 10485 10485 10485 10485 10486 10486 10486 10487 10489 10492 10494 10497 10498 10500 10500 10501 10502 10504 10507 10508 10510 10511 10513 10515 10517 10518 10520 10521 10524 10526 10527 10527 10527 10529 10532 10536 10538 10538 10540 10541 10541 10540 10541 10540 10537 10537 10539 10542 10546 10549 10552 10554 10554 10552 10554 10555 10554 10553 10553 10554 10554 10555 10556 10557 10555 10551 10553 10558 10559 10557 10559
10489 10488 10486 10484 10482 10481 10480 10479 10478 10477 10477 10475 10474 10474 10474 10473 10473 10473 10474 10474 10475 10475 10477 10479 10481 10484 10486 10487 10489 10490 10490 10492 10495 10498 10500 10502 10503 10505 10507 10508 10510 10512 10514 10516 10518 10518 10518 10521 10525 10529 10531 10533 10535 10535 10534 10535 10535 10532 10530 10529 10531 10534 10539 10542 10544 10546 10547 10546 10546 10547 10547 10546 10546 10547 10547 10547 10549 10550 10547 10543 10546 10551 10549 10547 10551
10478 10477 10476 10473 10472 10470 10469 10468 10466 10465 10464 10463 10461 10461 10461 10461 10460 10460 10460 10461 10462 10462 10464 10466 10468 10470 10472 10474 10476 10477 10478 10480 10482 10486 10489 10491 10493 10495 10496 10498 10500 10502 10505 10507 10508 10509 10510 10512 10516 10520 10522 10526 10528 10527 10525 10526 10526 10522 10522 10522 10523 10526 10531 10534 10536 10537 10538 10538 10538 10539 10539 10539 10539 10539 10540 10540 10541 10542 10541 10538 10540 10542 10539 10537 10540
10468 10466 10465 10463 10461 10459 10457 10456 10455 10453 10451 10449 10448 10447 10447 10447 10446 10446 10446 10446 10447 10448 10450 10452 10454 10456 10459 10461 10462 10463 10465 10467 10469 10473 10476 10479 10481 10483 10485 10487 10490 10492 10495 10497 10499 10500 10501 10502 10506 10510 10513 10516 10518 10517 10517 10518 10517 10515 10515 10515 10515 10518 10523 10526 10527 10529 10529 10530 10530 10530 10530 10531 10532 10532 10533 10533 10533 10534 10534 10533 10534 10534 10532 10530 10530
10457 10455 10454 10452 10450 10448 10446 10444 10443 10441 10438 10436 10435 10433 10432 10432 10431 10431 10431 10432 10432 10433 10434 10437 10439 10441 10444 10446 10448 10450 10451 10454 10456 10459 10463 10466 10469 10472 10474 10476 10479 10481 10484 10487 10488 10490 10492 10493 10496 10500 10503 10505 10507 10508 10509 10510 10508 10508 10508 10508 10507 10510 10514 10515 10517 10520 10522 10522 10521 10520 10521 10522 10523 10524 10525 10525 10526 10526 10526 10526 10526 10526 10526 10524 10523
10446 10444 10442 10440 10438 10436 10433 10431 10429 10428 10426 10423 10421 10419 10417 10417 10416 10416 10416 10416 10417 10418 10419 10421 10424 10427 10430 10432 10434 10436 10438 10441 10443 10446 10449 10453 10456 10459 10462 10465 10467 10470 10472 10475 10478 10480 10482 10484 10486 10489 10492 10495 10497 10498 10499 10499 10498 10498 10499 10499 10499 10502 10505 10506 10508 10512 10513 10512 10510 10510 10512 10514 10515 10516 10517 10517 10517 10517 10517 10518 10518 10518 10518 10517 10516
10436 10433 10430 10428 10426 10423 10421 10418 10416 10414 10413 10410 10407 10405 10403 10402 10402 10401 10401 10401 10401 10402 10404 10406 10408 10411 10414 10417 10421 10423 10425 10427 10430 10432 10435 10439 10442 10446 10449 10452 10455 10458 10460 10463 10466 10469 10471 10474 10476 10478 10480 10484 10486 10487 10489 10489 10488 10488 10489 10489 10489 10493 10496 10497 10500 10502 10501 10500 10501 10502 10504 10505 10506 10507 10508 10508 10508 10509 10509 10509 10509 10509 10508 10508 10507
10425 10422 10419 10416 10414 10412 10409 10406 10403 10401 10399 10397 10394 10391 10389 10388 10387 10386 10386 10386 10386 10387 10388 10390 10393 10395 10397 10401 10406 10409 10411 10413 10416 10419 10422 10425 10428 10432 10436 10439 10442 10446 10448 10451 10454 10457 10460 10463 10465 10467 10468 10471 10474 10476 10477 10478 10478 10478 10479 10480 10481 10484 10487 10488 10490 10491 10490 10490 10493 10495 10495 10496 10496 10497 10498 10499 10500 10501 10501 10501 10500 10500 10499 10498 10497
10413 10410 10407 10404 10402 10400 10398 10395 10392 10389 10386 10384 10382 10379 10376 10374 10373 10373 10372 10371 10371 10372 10373 10374 10377 10379 10381 10385 10389 10394 10397 10399 10402 10405 10408 10411 10414 10418 10422 10426 10429 10433 10436 10439 10442 10444 10448 10451 10453 10456 10457 10459 10463 10465 10465 10467 10468 10468 10470 10471 10472 10474 10478 10480 10481 10481 10481 10481 10484 10486 10486 10486 10486 10487 10488 10490 10491 10492 10492 10491 10490 10490 10489 10489 10489
10402 10399 10396 10393 10390 10388 10386 10384 10381 10378 10374 10371 10369 10367 10365 10363 10360 10359 10359 10358 10358 10358 10358 10359 10362 10364 10366 10368 10372 10377 10381 10384 10387 10390 10393 10396 10400 10403 10407 10411 10415 10419 10422 10426 10429 10432 10436 10439 10441 10444 10446 10449 10451 10453 10454 10455 10457 10459 10460 10461 10463 10464 10467 10469 10471 10472 10471 10472 10474 10475 10476 10476 10476 10477 10479 10480 10481 10482 10482 10481 10480 10480 10480 10480 10480
10392 10388 10386 10383 10380 10378 10375 10373 10370 10368 10365 10360 10356 10354 10353 10352 10350 10348 10346 10345 10345 10345 10345 10346 10347 10350 10351 10353 10357 10361 10365 10368 10372 10375 10379 10382 10385 10388 10393 10397 10401 10405 10409 10412 10416 10419 10423 10426 10429 10432 10435 10438 10440 10442 10443 10445 10447 10449 10450 10451 10453 10455 10456 10457 10459 10461 10461 10462 10464 10465 10465 10466 10467 10468 10469 10470 10471 10472 10471 10471 10470 10470 10470 10470 10471
10384 10380 10376 10373 10371 10368 10366 10363 10360 10357 10355 10352 10348 10344 10341 10340 10339 10337 10336 10334 10333 10332 10332 10333 10335 10336 10338 10339 10342 10345 10349 10353 10357 10360 10364 10367 10370 10374 10378 10382 10386 10391 10395 10399 10403 10406 10410 10413 10417 10420 10423 10426 10429 10430 10432 10434 10436 10438 10440 10441 10443 10445 10447 10447 10448 10449 10450 10452 10453 10455 10456 10457 10458 10458 10459 10460 10461 10461 10460 10461 10460 10459 10460 10461 10462
10376 10372 10369 10365 10362 10359 10356 10354 10351 10348 10345 10342 10340 10336 10333 10330 10327 10326 10325 10324 10323 10322 10321 10321 10322 10324 10325 10326 10329 10332 10335 10339 10342 10345 10348 10352 10356 10360 10364 10368 10372 10376 10381 10385 10389 10393 10396 10400 10403 10407 10410 10414 10417 10419 10421 10423 10425 10427 10430 10432 10433 10435 10437 10437 10437 10438 10439 10441 10442 10444 10445 10446 10447 10448 10449 10450 10450 10450 10450 10449 10449 10449 10450 10452 10452
10368 10365 10361 10358 10355 10351 10348 10345 10342 10339 10336 10333 10330 10327 10324 10322 10319 10316 10314 10313 10312 10312 10311 10311 10311 10312 10313 10314 10316 10319 10322 10325 10328 10331 10334 10337 10342 10346 10349 10353 10358 10362 10366 10371 10375 10379 10383 10386 10390 10393 10397 10400 10404 10407 10410 10412 10414 10416 10418 10421 10423 10424 10426 10427 10428 10428 10429 10430 10431 10433 10435 10436 10436 10437 10438 10439 10439 10440 10439 10438 10438 10438 10440 10441 10441
10362 10358 10355 10351 10347 10344 10341 10337 10334 10331 10328 10325 10322 10318 10315 10312 10310 10308 10306 10304 10302 10301 10300 10300 10301 10302 10302 10303 10305 10307 10309 10312 10314 10317 10321 10324 10328 10332 10335 10339 10343 10347 10352 10356 10361 10365 10369 10373 10377 10380 10383 10387 10391 10394 10398 10400 10402 10404 10407 10410 10412 10413 10415 10416 10418 10419 10419 10419 10421 10422 10423 10425 10425 10426 10427 10427 10428 10428 10428 10428 10427 10427 10428 10429 10430
10355 10352 10349 10345 10341 10338 10334 10330 10327 10324 10320 10317 10314 10311 10307 10304 10301 10299 10298 10297 10295 10292 10290 10290 10290 10292 10293 10293 10294 10295 10297 10300 10302 10304 10308 10312 10315 10319 10322 10325 10329 10333 10338 10343 10347 10352 10356 10360 10364 10367 10371 10374 10377 10381 10384 10388 10391 10393 10395 10398 10400 10402 10403 10405 10407 10408 10409 10410 10411 10411 10412 10414 10414 10415 10416 10416 10417 10417 10418 10417 10416 10416 10417 10418 10418
10349 10345 10342 10338 10335 10331 10328 10324 10320 10317 10314 10310 10307 10304 10300 10297 10294 10291 10289 10288 10287 10285 10283 10281 10280 10281 10282 10284 10284 10285 10286 10288 10290 10293 10296 10300 10303 10306 10309 10312 10315 10319 10324 10329 10334 10338 10342 10346 10350 10354 10358 10361 10364 10367 10371 10374 10378 10381 10383 10386 10388 10390 10392 10393 10395 10397 10398 10399 10400 10401 10402 10403 10404 10404 10405 10405 10406 10406 10407 10407 10406 10406 10406 10407 10407
10343 10340 10336 10333 10329 10326 10322 10318 10315 10311 10308 10304 10300 10297 10294 10290 10288 10285 10282 10280 10278 10276 10276 10274 10273 10271 10271 10273 10274 10275 10276 10277 10279 10282 10285 10288 10291 10294 10296 10299 10302 10306 10310 10315 10320 10324 10328 10332 10337 10341 10345 10348 10351 10354 10357 10361 10364 10367 10370 10373 10375 10378 10380 10382 10384 10385 10386 10388 10389 10391 10392 10393 10393 10393 10394 10394 10395 10395 10396 10396 10396 10395 10395 10395 10395
10338 10334 10331 10327 10324 10320 10316 10312 10309 10305 10302 10298 10294 10291 10287 10284 10281 10278 10276 10273 10271 10268 10267 10266 10265 10264 10263 10263 10264 10265 10267 10267 10268 10270 10274 10276 10279 10282 10285 10287 10290 10294 10298 10302 10307 10310 10315 10319 10323 10328 10332 10335 10338 10341 10344 10347 10350 10353 10357 10360 10362 10365 10368 10370 10372 10374 10375 10377 10378 10379 10380 10382 10382 10383 10383 10384 10384 10384 10385 10385 10385 10384 10384 10384 10384
10332 10329 10326 10322 10318 10315 10311 10308 10303 10299 10296 10292 10288 10284 10281 10277 10274 10272 10269 10267 10264 10261 10259 10258 10257 10256 10256 10255 10255 10256 10257 10258 10259 10260 10262 10265 10268 10271 10274 10276 10279 10282 10286 10290 10294 10297 10301 10306 10310 10314 10318 10322 10325 10328 10331 10334 10337 10340 10343 10346 10349 10352 10354 10357 10359 10361 10363 10365 10367 10368 10369 10370 10371 10372 10372 10373 10373 10373 10373 10373 10373 10373 10373 10373 10373
10326 10323 10321 10317 10313 10309 10306 10302 10298 10293 10290 10286 10282 10278 10275 10271 10268 10265 10263 10260 10258 10255 10253 10251 10250 10248 10248 10248 10248 10247 10247 10248 10250 10251 10252 10254 10257 10260 10262 10265 10268 10271 10275 10279 10282 10285 10288 10292 10296 10300 10305 10309 10312 10316 10319 10322 10325 10327 10330 10332 10335 10338 10341 10343 10346 10348 10350 10352 10354 10356 10357 10359 10360 10361 10361 10362 10362 10363 10363 10363 10362 10362 10362 10362 10362
10322 10319 10315 10312 10308 10304 10300 10296 10293 10288 10284 10280 10277 10273 10269 10266 10262 10259 10256 10254 10252 10249 10246 10244 10243 10242 10240 10240 10240 10240 10240 10240 10240 10242 10243 10244 10246 10249 10252 10254 10257 10260 10264 10267 10270 10272 10275 10279 10282 10286 10291 10295 10299 10302 10306 10309 10312 10314 10317 10319 10322 10324 10327 10330 10332 10335 10337 10339 10341 10343 10344 10346 10348 10349 10350 10350 10351 10351 10351 10352 10352 10352 10352 10351 10351
10318 10315 10311 10307 10304 10300 10296 10292 10289 10285 10280 10275 10271 10268 10265 10261 10258 10254 10251 10248 10245 10243 10241 10238 10237 10235 10234 10233 10232 10232 10232 10232 10232 10232 10234 10235 10237 10239 10241 10244 10246 10250 10253 10256 10258 10261 10264 10267 10270 10273 10277 10281 10285 10288 10292 10295 10298 10301 10304 10306 10309 10311 10313 10316 10319 10321 10323 10326 10328 10330 10331 10333 10335 10337 10338 10338 10338 10339 10339 10340 10340 10341 10341 10340 10340
10314 10310 10307 10303 10299 10296 10292 10288 10284 10281 10277 10273 10268 10264 10260 10256 10253 10250 10247 10243 10240 10237 10235 10232 10231 10229 10228 10226 10225 10225 10224 10224 10224 10224 10225 10226 10228 10229 10231 10233 10236 10239 10241 10244 10247 10250 10252 10255 10258 10261 10265 10268 10271 10274 10278 10281 10284 10287 10290 10293 10295 10298 10301 10303 10305 10307 10310 10312 10314 10316 10319 10320 10322 10323 10324 10325 10326 10326 10327 10327 10328 10328 10328 10328 10328
10310 10306 10303 10299 10295 10291 10287 10283 10280 10276 10273 10270 10265 10260 10256 10252 10248 10245 10242 10239 10236 10233 10230 10227 10225 10223 10222 10220 10219 10218 10217 10217 10217 10216 10217 10218 10219 10220 10222 10224 10226 10228 10231 10233 10236 10238 10241 10244 10246 10249 10252 10255 10257 10260 10264 10268 10271 10274 10277 10279 10282 10285 10287 10290 10292 10294 10296 10298 10301 10303 10305 10307 10308 10310 10311 10312 10313 10313 10313 10314 10315 10315 10315 10315 10315
10306 10302 10299 10295 10292 10287 10283 10280 10276 10272 10269 10266 10262 10258 10254 10249 10245 10242 10238 10235 10232 10229 10226 10223 10220 10217 10216 10215 10213 10212 10211 10211 10210 10209 10209 10210 10211 10212 10213 10215 10216 10218 10221 10223 10225 10227 10230 10232 10235 10238 10241 10243 10245 10248 10251 10254 10257 10260 10263 10266 10268 10270 10273 10275 10278 10280 10283 10285 10287 10289 10291 10293 10295 10296 10298 10299 10299 10300 10300 10301 10301 10302 10302 10302 10302
10302 10299 10295 10292 10288 10284 10280 10276 10272 10268 10264 10261 10258 10254 10250 10247 10243 10238 10235 10231 10228 10225 10222 10220 10216 10213 10210 10209 10208 10206 10205 10204 10204 10203 10202 10202 10203 10204 10205 10206 10207 10209 10211 10213 10215 10217 10219 10221 10224 10226 10229 10232 10234 10237 10239 10242 10244 10247 10250 10252 10254 10257 10259 10262 10264 10266 10269 10271 10273 10276 10278 10279 10280 10282 10283 10284 10285 10286 10287 10287 10288 10288 10288 10288 10289
10299 10295 10292 10288 10284 10280 10276 10273 10269 10265 10261 10257 10253 10250 10246 10242 10239 10235 10231 10227 10223 10220 10218 10216 10213 10210 10206 10204 10203 10201 10199 10198 10198 10197 10196 10195 10195 10195 10196 10198 10199 10200 10202 10203 10205 10207 10209 10211 10213 10215 10218 10220 10223 10226 10228 10230 10232 10234 10236 10238 10241 10244 10246 10248 10250 10252 10254 10257 10260 10262 10263 10264 10266 10267 10269 10270 10272 10273 10273 10273 10273 10274 10274 10274 10274
10295 10292 10288 10285 10281 10277 10273 10269 10266 10262 10258 10254 10250 10246 10242 10238 10234 10231 10227 10223 10219 10216 10213 10211 10209 10206 10203 10200 10198 10196 10194 10193 10191 10191 10191 10190 10189 10188 10189 10189 10190 10192 10193 10194 10196 10198 10199 10201 10203 10205 10207 10209 10212 10214 10217 10218 10220 10221 10223 10226 10229 10231 10233 10235 10237 10239 10241 10244 10246 10248 10249 10250 10252 10254 10255 10256 10257 10258 10259 10260 10260 10260 10260 10260 10260
10291 10288 10285 10281 10278 10274 10271 10266 10262 10258 10255 10251 10247 10243 10239 10235 10231 10227 10223 10220 10215 10211 10208 10205 10203 10201 10199 10196 10194 10191 10190 10188 10186 10185 10185 10184 10183 10182 10182 10182 10183 10184 10185 10186 10187 10189 10190 10192 10193 10195 10197 10199 10201 10203 10205 10207 10208 10210 10212 10215 10217 10219 10221 10222 10224 10226 10228 10230 10232 10234 10235 10236 10238 10240 10241 10242 10243 10244 10245 10245 10246 10245 10245 10246 10246
10288 10284 10281 10277 10274 10271 10267 10264 10260 10255 10251 10247 10244 10240 10236 10232 10228 10224 10220 10217 10213 10209 10205 10202 10199 10197 10195 10193 10191 10188 10185 10183 10181 10179 10178 10178 10178 10177 10176 10175 10175 10176 10177 10178 10179 10180 10181 10183 10184 10185 10187 10189 10191 10192 10194 10195 10197 10200 10202 10204 10205 10207 10209 10210 10212 10213 10215 10217 10219 10220 10222 10223 10225 10226 10227 10228 10229 10230 10231 10231 10232 10232 10231 10231 10231
10284 10280 10277 10274 10270 10266 10263 10259 10256 10252 10248 10244 10241 10237 10233 10229 10225 10221 10218 10214 10211 10207 10203 10200 10196 10193 10191 10189 10187 10185 10182 10179 10177 10174 10173 10172 10172 10172 10171 10170 10169 10169 10169 10170 10171 10171 10172 10173 10174 10176 10177 10179 10180 10182 10183 10185 10187 10189 10191 10193 10194 10196 10197 10199 10200 10202 10203 10205 10206 10207 10209 10210 10212 10213 10214 10215 10216 10217 10218 10218 10218 10218 10218 10218 10217
10280 10276 10273 10270 10266 10262 10259 10255 10252 10249 10245 10241 10237 10233 10230 10226 10222 10219 10215 10211 10208 10204 10201 10197 10194 10190 10187 10184 10182 10180 10178 10176 10173 10171 10168 10167 10166 10165 10165 10165 10164 10163 10163 10163 10163 10164 10164 10165 10165 10167 10168 10169 10170 10172 10174 10175 10176 10178 10180 10182 10183 10185 10186 10187 10189 10190 10192 10193 10194 10195 10197 10198 10199 10200 10201 10202 10203 10203 10204 10205 10205 10205 10205 10205 10204